Lexington Weather

Lexington, Massachusetts, USA

24°F
2/26/2021 7:09am 
  • Lexington Conditions: Clear
  • Temperature: 24.4°F / -4.2°CColder 1.3°F than last hour.
  • Dew Point: 14.7°FDecreased 0.9°Fsince last hour.
  • Relative Humidity: 66%Increased 1.0% since last hour.
  • Wind: Calm, 10-min avg: Calm, gust: None
  • Barometer: 30.33 inRising 0.03  inHg/hr Rising Slowly
  • Visibility: 10 miles
  • Snow Today: 0.0 in
  •   

Regional Weather Roundup
for Boston / Norton, MA

        
000
ASUS41 KBOX 240105
RWRBOX

REGIONAL WEATHER ROUNDUP
NATIONAL WEATHER SERVICE BOSTON/NORTON MA
800 PM EST TUE FEB 23 2021

NOTE:  "FAIR" INDICATES FEW OR NO CLOUDS BELOW 12,000 FEET WITH NO 
SIGNIFICANT WEATHER AND/OR OBSTRUCTIONS TO VISIBILITY.

MAZALL-240200-
EASTERN MASSACHUSETTS
  
CITY           SKY/WX    TMP DP  RH WIND       PRES   REMARKS
BOSTON         MOCLDY    38  31  76 W14       29.60R WCI  30          
BEVERLY        PTCLDY    38  31  76 W9        29.58R WCI  31          
LAWRENCE       CLOUDY    38  31  76 SW9       29.60R WCI  31          
BEDFORD        CLOUDY    37  31  78 W7        29.59R WCI  32          
BLUE HILL        N/A     34  33  96 W13       29.57R WCI  25          
NORWOOD        CLOUDY    39  31  72 W6        29.61R                  
MARSHFIELD     MOCLDY    39  34  81 W9        29.60R                  
PLYMOUTH       CLOUDY    37  32  82 W10       29.60R WCI  30          
TAUNTON        MOCLDY    38  31  76 W6        29.61S                  
NEW BEDFORD    PTCLDY    39  32  76 W9        29.61S                  
$$

MAZALL-240200-
CAPE COD AND THE ISLANDS
  
CITY           SKY/WX    TMP DP  RH WIND       PRES   REMARKS
FALMOUTH       MOCLDY    36  34  93 SW17G29   29.61S WCI  25          
HYANNIS        CLOUDY    38  34  85 W13       29.59S WCI  30          
CHATHAM        LGT RAIN  38  33  82 W8        29.62R                  
PROVINCETOWN   CLOUDY    38  34  85 W13       29.61R WCI  30          
NANTUCKET      CLOUDY    38  35  89 W17G26    29.63R WCI  28          
MARTHAS VNYRD  CLOUDY    38  34  85 W9        29.63R WCI  31          
$$
 
MAZALL-240200-
CENTRAL AND WESTERN MASSACHUSETTS
  
CITY           SKY/WX    TMP DP  RH WIND       PRES   REMARKS
WORCESTER      MOCLDY    35  30  82 W12       29.58R WCI  27          
FITCHBURG      PTCLDY    36  32  85 CALM      29.60R                  
ORANGE         CLOUDY    35  31  85 SW7       29.61R WCI  29          
SPRINGFIELD    MOCLDY    37  31  79 W13       29.62R WCI  29          
WESTFIELD      CLOUDY    36  32  85 S6        29.64R WCI  31          
NORTH ADAMS    CLOUDY    38  29  70 W13G21    29.63R WCI  30          
PITTSFIELD     CLOUDY    35  29  78 W14G22    29.61R WCI  26          
$$
 
RIZALL-240200-
RHODE ISLAND
  
CITY           SKY/WX    TMP DP  RH WIND       PRES   REMARKS
PROVIDENCE     MOCLDY    37  32  82 W9        29.63R WCI  30          
NEWPORT        CLEAR     36  32  85 W7        29.62S WCI  30          
BLOCK ISLAND   MOCLDY    37  33  85 W13       29.67R WCI  29          
SMITHFIELD     PTCLDY    35  34  96 W5        29.61R WCI  31          
WESTERLY       MOCLDY    35  33  92 W5        29.66R WCI  31          
$$
 
CTZALL-240200-
CONNECTICUT
  
CITY           SKY/WX    TMP DP  RH WIND       PRES   REMARKS
BRADLEY INTL   MOCLDY    37  31  78 SW7       29.65R WCI  32          
HARTFORD       MOCLDY    39  31  72 W7        29.67R                  
BRIDGEPORT     CLOUDY    42  33  70 W10       29.69R                  
DANBURY        CLOUDY    42  31  64 W10G20    29.70R                  
GROTON         CLOUDY    38  33  82 W10       29.66R WCI  31          
NEW HAVEN      CLOUDY    42  34  73 VRB5      29.68R                  
CHESTER        MOCLDY    37  34  87 VRB5      29.66R                  
MERIDEN        CLOUDY    40  31  70 CALM      29.68R                  
WILLIMANTIC    PTCLDY    36  32  85 SW5       29.64R                  
OXFORD         CLOUDY    38  34  85 W10G16    29.67R WCI  31          
$$

MEZ002-015-021-024-NHZ003-005-008-011-012-014-VTZ005-008-240200-
NORTHERN NEW ENGLAND
  
CITY           SKY/WX    TMP DP  RH WIND       PRES   REMARKS
PORTLAND ME    CLOUDY    37  30  75 W3        29.55R                  
BANGOR ME      CLOUDY    33  31  92 CALM      29.54R                  
CONCORD NH     PTCLDY    34  31  88 CALM      29.57R                  
MANCHESTER NH  PTCLDY    38  30  73 SW3       29.57R                  
NASHUA NH      PTCLDY    34  33  96 SW3       29.60R                  
PORTSMOUTH NH  PTCLDY    36  31  82 W6        29.55S WCI  31          
JAFFREY NH     PTCLDY    34  30  85 SW5       29.57R WCI  30          
KEENE NH       MOCLDY    31  30  96 CALM      29.60R FOG              
BURLINGTON VT  CLOUDY    34  31  88 SW5       29.58R WCI  30          
MT. WASHINGTON SNOW      12  12 100 W44         N/A  VSB 0   WCI -13  
$$

NYZ052-076-240200-
EASTERN NEW YORK
  
CITY           SKY/WX    TMP DP  RH WIND       PRES   REMARKS
ALBANY         CLOUDY    36  30  79 W18G26    29.67R WCI  26          
NEW YORK CITY  MOCLDY    46  30  53 NW17G23   29.74R                  
$$
 
ANZALL-240200-
MARINE OBSERVATIONS
  
STATION/POSITION TIME  TEMP    WIND        PRES    VSBY  WAVE
                       AIR SEA DIR/SP/G                  HT/PER
                 (UTC) (F)     (DEG/KT/KT) (MB)    (MI)  (FT/S)
BOSTON BUOY      0040   39 39  260/ 14/ 19 1002.3R
BUZZARDS BAY     0000          260/ 17/ 18 1004.4R
NANTUCKET SOUND  0040      36  260/ 19/ 23   N/A
MASS BAY-STELLWA 0004   40     260/ 16/ 17 1000.0R  1 7/8
ISLE OF SHOALS   0000   40     270/ 15/ 16 1000.6R
S OF BLOCK IS    0026      38                N/A           8/10
$$

......................KEY.........................
  SKY/WX - SKY CONDITION/PRESENT WEATHER
  TMP    - TEMPERATURE IN FAHRENHEIT
  DWPT   - DEWPOINT IN FAHRENHEIT
  RH     - RELATIVE HUMIDITY IN PERCENT
  WIND   - DIRECTION AND SPEED IN MPH
  PRES   - MEAN SEA LEVEL PRESSURE IN INCHES OF HG
  WCI    - WIND CHILL INDEX
  VSB    - VISIBILITY IN MILES
  HX     - HEAT INDEX
  TC     - TEMPERATURE IN CELSIUS
  VRB    - VARIABLE WIND DIRECTION
  N/A    - NOT AVAILABLE
  
      

Other recent Regional Weather Roundups

Fri Feb 26, 6:04am

Fri Feb 26, 5:04am

Fri Feb 26, 4:04am

Fri Feb 26, 3:04am

Fri Feb 26, 2:04am

Fri Feb 26, 1:04am

Fri Feb 26, 12:04am

Thu Feb 25, 11:04pm

Thu Feb 25, 10:04pm

Thu Feb 25, 9:04pm

Thu Feb 25, 8:05pm

Thu Feb 25, 7:05pm

Thu Feb 25, 6:04pm

Thu Feb 25, 5:04pm

Thu Feb 25, 4:05pm

Thu Feb 25, 3:05pm

Thu Feb 25, 2:04pm

Thu Feb 25, 1:04pm

Thu Feb 25, 12:05pm

Thu Feb 25, 11:04am

Thu Feb 25, 10:04am

Thu Feb 25, 9:04am

Thu Feb 25, 8:04am

Thu Feb 25, 7:04am

Thu Feb 25, 6:04am

Thu Feb 25, 5:04am

Thu Feb 25, 4:04am

Thu Feb 25, 3:04am

Thu Feb 25, 2:04am

Thu Feb 25, 1:04am

Thu Feb 25, 12:04am

Wed Feb 24, 11:04pm

Wed Feb 24, 10:05pm

Wed Feb 24, 9:04pm

Wed Feb 24, 8:04pm

Wed Feb 24, 7:04pm

Wed Feb 24, 6:04pm

Wed Feb 24, 5:04pm

Wed Feb 24, 4:04pm

Wed Feb 24, 3:04pm

Wed Feb 24, 2:05pm

Wed Feb 24, 1:05pm

Wed Feb 24, 12:05pm

Wed Feb 24, 11:04am

Wed Feb 24, 10:04am

Wed Feb 24, 9:04am

Wed Feb 24, 8:04am

Wed Feb 24, 7:04am

Wed Feb 24, 6:04am

Wed Feb 24, 5:04am

Wed Feb 24, 4:04am

Wed Feb 24, 3:04am

Wed Feb 24, 2:04am

Wed Feb 24, 1:04am

Wed Feb 24, 12:04am

Tue Feb 23, 11:04pm

Tue Feb 23, 10:04pm

Tue Feb 23, 9:04pm

Tue Feb 23, 7:04pm

Tue Feb 23, 6:04pm

Tue Feb 23, 5:04pm

Tue Feb 23, 4:05pm

Tue Feb 23, 3:04pm

Tue Feb 23, 2:04pm

Tue Feb 23, 1:04pm

Tue Feb 23, 12:04pm

Tue Feb 23, 11:04am

Tue Feb 23, 10:04am

Tue Feb 23, 9:04am

Tue Feb 23, 7:04am

Tue Feb 23, 6:04am

Tue Feb 23, 5:04am

Tue Feb 23, 4:04am

Tue Feb 23, 3:04am

Tue Feb 23, 2:04am

Tue Feb 23, 1:04am

Tue Feb 23, 12:04am

Mon Feb 22, 11:04pm

Mon Feb 22, 10:04pm

Mon Feb 22, 9:04pm

Mon Feb 22, 8:04pm

Mon Feb 22, 7:04pm

Mon Feb 22, 6:04pm

Mon Feb 22, 5:04pm

Mon Feb 22, 4:05pm

Mon Feb 22, 3:04pm

Mon Feb 22, 2:05pm

Mon Feb 22, 1:04pm

Mon Feb 22, 12:05pm

Mon Feb 22, 11:04am

Mon Feb 22, 10:04am

Mon Feb 22, 9:05am

Mon Feb 22, 8:04am

Mon Feb 22, 7:04am

Mon Feb 22, 6:04am

Mon Feb 22, 5:04am

Mon Feb 22, 4:04am

Mon Feb 22, 3:04am

Mon Feb 22, 2:04am

Mon Feb 22, 1:04am

Mon Feb 22, 12:04am

Sun Feb 21, 11:04pm

Sun Feb 21, 10:05pm

Sun Feb 21, 9:04pm

Sun Feb 21, 8:04pm

Sun Feb 21, 7:04pm

Sun Feb 21, 6:04pm

Sun Feb 21, 5:04pm

Sun Feb 21, 4:05pm

Sun Feb 21, 3:04pm

Sun Feb 21, 2:04pm

Sun Feb 21, 1:05pm

Sun Feb 21, 12:05pm

Sun Feb 21, 11:04am

Sun Feb 21, 10:05am

Sun Feb 21, 9:04am

Sun Feb 21, 8:04am

Sun Feb 21, 7:04am

Sun Feb 21, 6:04am

Sun Feb 21, 5:04am

Sun Feb 21, 4:04am

Sun Feb 21, 3:04am

Sun Feb 21, 2:04am

Sun Feb 21, 1:04am

Sun Feb 21, 12:04am

Sat Feb 20, 11:04pm

Sat Feb 20, 10:04pm

Sat Feb 20, 9:04pm

Sat Feb 20, 8:04pm

Sat Feb 20, 7:04pm

Sat Feb 20, 6:04pm

Sat Feb 20, 5:04pm

Sat Feb 20, 4:05pm

Sat Feb 20, 3:04pm

Sat Feb 20, 2:04pm

Sat Feb 20, 1:05pm

Sat Feb 20, 12:05pm

Sat Feb 20, 11:04am

Sat Feb 20, 10:05am

Sat Feb 20, 9:04am

Sat Feb 20, 8:04am

Sat Feb 20, 7:04am

Sat Feb 20, 6:04am

Sat Feb 20, 5:04am

Sat Feb 20, 4:04am

Sat Feb 20, 3:04am

Sat Feb 20, 2:04am

Sat Feb 20, 1:04am

Sat Feb 20, 12:04am

Fri Feb 19, 11:04pm

Fri Feb 19, 10:05pm

Fri Feb 19, 9:04pm

Fri Feb 19, 8:04pm

Fri Feb 19, 7:04pm

Fri Feb 19, 6:04pm

Fri Feb 19, 5:04pm

Fri Feb 19, 4:05pm

Fri Feb 19, 3:04pm

Fri Feb 19, 2:04pm

Fri Feb 19, 1:05pm

Fri Feb 19, 12:05pm

Fri Feb 19, 11:04am

Fri Feb 19, 10:04am

Fri Feb 19, 9:04am

Fri Feb 19, 8:04am

Fri Feb 19, 7:04am

Meta data:

ID: a9b2ba08-5f92-464f-977a-f7a371dc28c8
Link: https://api.weather.gov/products/a9b2ba08-5f92-464f-977a-f7a371dc28c8